• MPC Preparation (Info)

  • MPEC 2014-B16 : 2014 BR

    The following Minor Planet Electronic Circular may be linked-to from your own Web pages, but must not otherwise be redistributed electronically.

    A form allowing access to any MPEC is at the bottom of this page.


    Read MPEC 2014-B15 Read MPEC 2014-B17


    M.P.E.C. 2014-B16                                Issued 2014 Jan. 21, 18:55 UT
    
         The Minor Planet Electronic Circulars contain information on unusual
             minor planets and routine data on comets.  They are published
       on behalf of Commission 20 of the International Astronomical Union by the
              Minor Planet Center, Smithsonian Astrophysical Observatory,
                              Cambridge, MA 02138, U.S.A.
    
                 Prepared using the Tamkin Foundation Computer Network
    
                                  MPC@CFA.HARVARD.EDU
                URL https://www.minorplanetcenter.net/    ISSN 1523-6714
    
                                        2014 BR
    
    Observations:
         K14B00R* C2014 01 20.30166 08 14 25.43 +21 20 13.6          21.0 VqEB016G96
         K14B00R  C2014 01 20.30728 08 14 27.52 +21 20 38.4          20.6 VqEB016G96
         K14B00R  C2014 01 20.31290 08 14 29.67 +21 21 03.3          20.6 VqEB016G96
         K14B00R  C2014 01 20.31854 08 14 31.81 +21 21 28.8          20.3 VqEB016G96
         K14B00R  C2014 01 20.37329 08 14 52.59 +21 25 28.8          20.5 VqEB016G96
         K14B00R  C2014 01 20.37842 08 14 54.58 +21 25 51.1          20.9 VqEB016G96
         K14B00R  C2014 01 20.38355 08 14 56.49 +21 26 12.8          20.9 VqEB016G96
         K14B00R KC2014 01 21.35296 08 21 48.94 +22 36 57.7          20.7 RoEB016291
         K14B00R KC2014 01 21.35458 08 21 49.56 +22 37 04.7          20.2 RoEB016291
         K14B00R KC2014 01 21.35620 08 21 50.17 +22 37 11.4          20.5 RoEB016291
    
    Observer details:
    291 LPL/Spacewatch II.  Observer T. H. Bressi.  1.8-m f/2.7 reflector + CCD.
    G96 Mt. Lemmon Survey.  Observer E. J. Christensen.  Measurers A. Boattini,
        E. J. Christensen, A. R. Gibbs, A. D. Grauer, R. E. Hill, J. A. Johnson,
        R. A. Kowalski, S. M. Larson, F. C. Shelly.  1.5-m reflector + CCD.
    
    Orbital elements:
    2014 BR                                                  Earth MOID = 0.0776 AU
    Epoch 2013 Nov. 4.0 TT = JDT 2456600.5                  MPC
    M 324.45708              (2000.0)            P               Q
    n   0.47033802     Peri.  359.12995     -0.47293098     -0.87585546
    a   1.6375554      Node   119.08955     +0.80905498     -0.47482100
    e   0.3513645      Incl.    6.30623     +0.34895034     -0.08615234
    P   2.10           H   25.9           G   0.15           U   8
    Residuals in seconds of arc
    140120 G96  0.2+  0.0     140120 G96  0.0   0.2+    140121 291  0.0   0.1+
    140120 G96  0.3-  0.1-    140120 G96  0.4+  0.2+    140121 291  0.1-  0.1-
    140120 G96  0.0   0.2-    140120 G96  0.3-  0.4-
    140120 G96  0.0   0.3+    140121 291  0.1+  0.0
    
    Ephemeris:
    2014 BR                  a,e,i = 1.64, 0.35, 6                   q = 1.0622
    Date    TT    R. A. (2000) Decl.     Delta      r     Elong.  Phase     V
    2013 12 22    06 01 04.7 -04 24 25   0.1254  1.0961   152.2    24.8    22.7
    ...
    2014 01 06    06 50 07.2 +04 35 54   0.09027 1.0694   161.6    16.9    21.7
    ...
    2014 01 14    07 32 41.1 +13 26 10   0.08029 1.0631   171.8     7.6    21.1
    ...
    2014 01 20    08 12 17.5 +20 58 13   0.07825 1.0622   178.6     1.3    20.7
    2014 01 21    08 19 19.7 +22 11 40   0.07841 1.0624   177.1     2.6    20.8
    2014 01 22    08 26 26.2 +23 23 28   0.07870 1.0626   175.6     4.1    20.9
    ...
    2014 01 28    09 09 13.7 +29 41 26   0.08333 1.0662   166.9    12.1    21.4
    ...
    2014 02 05    10 00 23.3 +35 02 56   0.09616 1.0759   158.3    19.8    22.0
    ...
    2014 02 20    11 01 40.0 +37 41 59   0.1345  1.1084   151.2    25.5    22.9
    
    A. U. Tomatic                (C) Copyright 2014 MPC           M.P.E.C. 2014-B16
    

    Read MPEC 2014-B15 Read MPEC 2014-B17


    MPEC number:

    Enter an MPEC number in one of the following forms:

    • 1997-B01 (the full form)
    • J97B01 (the packed version of the full form)
    • B01 (the abbreviated form)